owner,sensor,date,latitude,longitude,vertical_datum,direction_of_sea_water_velocity,sea_water_speed,upward_sea_water_velocity,qcFlag 
TABS,ioos:station:wmo:42045:1,2002-09-12T19:30:00Z,26.2168,-96.4998,2.0,45.42717757,78.73852742,-99999.0,'11111222,11111222,99999999' 
TABS,ioos:station:wmo:42045:1,2002-09-12T20:00:00Z,26.2168,-96.4998,2.0,138.4320422,38.38696784,-99999.0,'11111222,11111222,99999999' 
TABS,ioos:station:wmo:42045:1,2002-09-12T20:30:00Z,26.2168,-96.4998,2.0,139.0656987,37.89730597,-99999.0,'11111222,11111222,99999999' 
TABS,ioos:station:wmo:42045:1,2002-09-12T21:00:00Z,26.2168,-96.4998,2.0,143.7365571,32.49382095,-99999.0,'11111222,11111222,99999999' 
TABS,ioos:station:wmo:42045:1,2002-09-12T21:30:00Z,26.2168,-96.4998,2.0,143.727954,30.66166988,-99999.0,'11111222,11111222,99999999' 
TABS,ioos:station:wmo:42045:1,2002-09-12T22:00:00Z,26.2168,-96.4998,2.0,151.0613209,23.97332684,-99999.0,'11111222,11111222,99999999' 
TABS,ioos:station:wmo:42045:1,2002-09-12T22:30:00Z,26.2168,-96.4998,2.0,144.2290778,22.00004773,-99999.0,'11111222,11111222,99999999' 
TABS,ioos:station:wmo:42045:1,2002-09-12T23:00:00Z,26.2168,-96.4998,2.0,139.2621781,23.68995779,-99999.0,'11111222,11111222,99999999' 
TABS,ioos:station:wmo:42045:1,2002-09-12T23:30:00Z,26.2168,-96.4998,2.0,139.3135571,22.65624197,-99999.0,'11111222,11111222,99999999' 
TABS,ioos:station:wmo:42045:1,2002-09-13T00:00:00Z,26.2168,-96.4998,2.0,142.6607993,21.00470424,-99999.0,'11111222,11111222,99999999' 
TABS,ioos:station:wmo:42045:1,2002-09-13T00:30:00Z,26.2168,-96.4998,2.0,149.77925,19.56963464,-99999.0,'11111222,11111222,99999999' 
TABS,ioos:station:wmo:42045:1,2002-09-13T01:00:00Z,26.2168,-96.4998,2.0,150.934097,14.96460157,-99999.0,'11111222,11111222,99999999' 
TABS,ioos:station:wmo:42045:1,2002-09-13T01:30:00Z,26.2168,-96.4998,2.0,143.7265979,12.67668726,-99999.0,'11111222,11111222,99999999' 
TABS,ioos:station:wmo:42045:1,2002-09-13T02:00:00Z,26.2168,-96.4998,2.0,140.283705,13.13019802,-99999.0,'11111222,11111222,99999999' 
TABS,ioos:station:wmo:42045:1,2002-09-13T02:30:00Z,26.2168,-96.4998,2.0,133.5922722,13.2410347,-99999.0,'11111222,11111222,99999999' 
TABS,ioos:station:wmo:42045:1,2002-09-13T03:00:00Z,26.2168,-96.4998,2.0,142.1408121,12.62788185,-99999.0,'11111222,11111222,99999999' 
TABS,ioos:station:wmo:42045:1,2002-09-13T03:30:00Z,26.2168,-96.4998,2.0,124.588323,12.55995621,-99999.0,'11111222,11111222,99999999' 
TABS,ioos:station:wmo:42045:1,2002-09-13T04:00:00Z,26.2168,-96.4998,2.0,130.447401,11.31404879,-99999.0,'11111222,11111222,99999999' 
TABS,ioos:station:wmo:42045:1,2002-09-13T04:30:00Z,26.2168,-96.4998,2.0,113.9379302,14.245308,-99999.0,'11111222,11111222,99999999' 
TABS,ioos:station:wmo:42045:1,2002-09-13T05:00:00Z,26.2168,-96.4998,2.0,113.9104971,11.2013035,-99999.0,'11111222,11111222,99999999' 
TABS,ioos:station:wmo:42045:1,2002-09-13T05:30:00Z,26.2168,-96.4998,2.0,93.1190638,6.800073529,-99999.0,'11133222,11111222,99999999' 
TABS,ioos:station:wmo:42045:1,2002-09-13T06:00:00Z,26.2168,-96.4998,2.0,101.1457356,8.897825577,-99999.0,'11133222,11111222,99999999' 
TABS,ioos:station:wmo:42045:1,2002-09-13T06:30:00Z,26.2168,-96.4998,2.0,91.03829355,9.381540385,-99999.0,'11133222,11111222,99999999' 
TABS,ioos:station:wmo:42045:1,2002-09-13T07:00:00Z,26.2168,-96.4998,2.0,95.49888051,8.348419012,-99999.0,'11133222,11111222,99999999' 
TABS,ioos:station:wmo:42045:1,2002-09-13T07:30:00Z,26.2168,-96.4998,2.0,76.83242362,7.199284687,-99999.0,'11133222,11111222,99999999' 
TABS,ioos:station:wmo:42045:1,2002-09-13T08:00:00Z,26.2168,-96.4998,2.0,80.40044684,6.176487675,-99999.0,'11133222,11111222,99999999' 
TABS,ioos:station:wmo:42045:1,2002-09-13T08:30:00Z,26.2168,-96.4998,2.0,64.32324436,8.077648173,-99999.0,'11133222,11111222,99999999' 
TABS,ioos:station:wmo:42045:1,2002-09-13T09:00:00Z,26.2168,-96.4998,2.0,68.61003339,9.569127442,-99999.0,'11133222,11111222,99999999' 
TABS,ioos:station:wmo:42045:1,2002-09-13T09:30:00Z,26.2168,-96.4998,2.0,72.20168637,14.23112785,-99999.0,'11111222,11111222,99999999' 
TABS,ioos:station:wmo:42045:1,2002-09-13T10:00:00Z,26.2168,-96.4998,2.0,83.10146414,16.31813715,-99999.0,'11111222,11111222,99999999' 
TABS,ioos:station:wmo:42045:1,2002-09-13T10:30:00Z,26.2168,-96.4998,2.0,83.5697451,21.07256985,-99999.0,'11111222,11111222,99999999' 
TABS,ioos:station:wmo:42045:1,2002-09-13T11:00:00Z,26.2168,-96.4998,2.0,83.98102497,24.03248635,-99999.0,'11111222,11111222,99999999' 
TABS,ioos:station:wmo:42045:1,2002-09-13T11:30:00Z,26.2168,-96.4998,2.0,81.09923585,21.974624,-99999.0,'11111222,11111222,99999999' 
TABS,ioos:station:wmo:42045:1,2002-09-13T12:00:00Z,26.2168,-96.4998,2.0,84.45899163,23.19839865,-99999.0,'11111222,11111222,99999999' 
TABS,ioos:station:wmo:42045:1,2002-09-13T12:30:00Z,26.2168,-96.4998,2.0,90.62571104,21.0612559,-99999.0,'11111222,11111222,99999999' 
TABS,ioos:station:wmo:42045:1,2002-09-13T13:00:00Z,26.2168,-96.4998,2.0,107.9846095,23.73995156,-99999.0,'11111222,11111222,99999999' 
TABS,ioos:station:wmo:42045:1,2002-09-13T13:30:00Z,26.2168,-96.4998,2.0,104.7120126,24.05878218,-99999.0,'11111222,11111222,99999999' 
TABS,ioos:station:wmo:42045:1,2002-09-13T14:00:00Z,26.2168,-96.4998,2.0,110.9660573,25.34825043,-99999.0,'11111222,11111222,99999999' 
TABS,ioos:station:wmo:42045:1,2002-09-13T14:30:00Z,26.2168,-96.4998,2.0,119.0835711,23.00005217,-99999.0,'11111222,11111222,99999999' 
TABS,ioos:station:wmo:42045:1,2002-09-13T15:00:00Z,26.2168,-96.4998,2.0,127.5473518,28.07596303,-99999.0,'11111222,11111222,99999999' 
TABS,ioos:station:wmo:42045:1,2002-09-13T15:30:00Z,26.2168,-96.4998,2.0,123.7286163,28.79726723,-99999.0,'11111222,11111222,99999999' 
TABS,ioos:station:wmo:42045:1,2002-09-13T16:00:00Z,26.2168,-96.4998,2.0,125.4134562,29.50953236,-99999.0,'11111222,11111222,99999999' 
TABS,ioos:station:wmo:42045:1,2002-09-13T16:30:00Z,26.2168,-96.4998,2.0,124.3863229,32.86286658,-99999.0,'11111222,11111222,99999999' 
TABS,ioos:station:wmo:42045:1,2002-09-13T17:00:00Z,26.2168,-96.4998,2.0,125.75317,29.35157406,-99999.0,'11111222,11111222,99999999' 
TABS,ioos:station:wmo:42045:1,2002-09-13T17:30:00Z,26.2168,-96.4998,2.0,138.1655459,41.23067305,-99999.0,'11111222,11111222,99999999' 
TABS,ioos:station:wmo:42045:1,2002-09-13T18:00:00Z,26.2168,-96.4998,2.0,132.6611111,38.98698886,-99999.0,'11111222,11111222,99999999' 
TABS,ioos:station:wmo:42045:1,2002-09-13T18:30:00Z,26.2168,-96.4998,2.0,135.8388037,47.81261444,-99999.0,'11111222,11111222,99999999' 
TABS,ioos:station:wmo:42045:1,2002-09-13T19:00:00Z,26.2168,-96.4998,2.0,134.4480146,55.79331322,-99999.0,'11111222,11111222,99999999' 
TABS,ioos:station:wmo:42045:1,2002-09-13T19:30:00Z,26.2168,-96.4998,2.0,139.1718572,54.81875591,-99999.0,'11111222,11111222,99999999' 
TABS,ioos:station:wmo:42045:1,2002-09-13T20:00:00Z,26.2168,-96.4998,2.0,141.4699766,59.92714994,-99999.0,'11111222,11111222,99999999' 
TABS,ioos:station:wmo:42045:1,2002-09-13T20:30:00Z,26.2168,-96.4998,2.0,143.6225102,52.11592559,-99999.0,'11111222,11111222,99999999' 
TABS,ioos:station:wmo:42045:1,2002-09-13T21:00:00Z,26.2168,-96.4998,2.0,144.4768794,58.96429174,-99999.0,'11111222,11111222,99999999' 
TABS,ioos:station:wmo:42045:1,2002-09-13T21:30:00Z,26.2168,-96.4998,2.0,146.0564276,62.71779094,-99999.0,'11111222,11111222,99999999' 
TABS,ioos:station:wmo:42045:1,2002-09-13T22:00:00Z,26.2168,-96.4998,2.0,146.3098008,65.8734218,-99999.0,'11111222,11111222,99999999' 
TABS,ioos:station:wmo:42045:1,2002-09-13T22:30:00Z,26.2168,-96.4998,2.0,149.9308956,68.41741372,-99999.0,'11111222,11111222,99999999' 
TABS,ioos:station:wmo:42045:1,2002-09-13T23:00:00Z,26.2168,-96.4998,2.0,148.5617298,72.91340755,-99999.0,'11111222,11111222,99999999' 
TABS,ioos:station:wmo:42045:1,2002-09-13T23:30:00Z,26.2168,-96.4998,2.0,154.6722693,76.2050812,-99999.0,'11111222,11111222,99999999' 
TABS,ioos:station:wmo:42045:1,2002-09-14T00:00:00Z,26.2168,-96.4998,2.0,156.1566651,74.11535401,-99999.0,'11111222,11111222,99999999' 
TABS,ioos:station:wmo:42045:1,2002-09-14T00:30:00Z,26.2168,-96.4998,2.0,159.1223603,75.31482258,-99999.0,'11111222,11111222,99999999' 
TABS,ioos:station:wmo:42045:1,2002-09-14T01:00:00Z,26.2168,-96.4998,2.0,159.6815573,77.84356685,-99999.0,'11111222,11111222,99999999' 
TABS,ioos:station:wmo:42045:1,2002-09-14T01:30:00Z,26.2168,-96.4998,2.0,163.6587222,76.77127653,-99999.0,'11111222,11111222,99999999' 
TABS,ioos:station:wmo:42045:1,2002-09-14T02:00:00Z,26.2168,-96.4998,2.0,164.2033582,73.98402328,-99999.0,'11111222,11111222,99999999' 
TABS,ioos:station:wmo:42045:1,2002-09-14T02:30:00Z,26.2168,-96.4998,2.0,163.7588233,71.61800402,-99999.0,'11111222,11111222,99999999' 
TABS,ioos:station:wmo:42045:1,2002-09-14T03:00:00Z,26.2168,-96.4998,2.0,164.9701124,64.20640622,-99999.0,'11111222,11111222,99999999' 
TABS,ioos:station:wmo:42045:1,2002-09-14T03:30:00Z,26.2168,-96.4998,2.0,167.9814532,62.33635617,-99999.0,'11111222,11111222,99999999' 
TABS,ioos:station:wmo:42045:1,2002-09-14T04:00:00Z,26.2168,-96.4998,2.0,166.8951697,62.05609156,-99999.0,'11111222,11111222,99999999' 
TABS,ioos:station:wmo:42045:1,2002-09-14T04:30:00Z,26.2168,-96.4998,2.0,166.436246,58.79991241,-99999.0,'11111222,11111222,99999999' 
TABS,ioos:station:wmo:42045:1,2002-09-14T05:00:00Z,26.2168,-96.4998,2.0,160.5609043,57.57177868,-99999.0,'11111222,11111222,99999999' 
TABS,ioos:station:wmo:42045:1,2002-09-14T05:30:00Z,26.2168,-96.4998,2.0,157.692369,53.61233533,-99999.0,'11111222,11111222,99999999' 
TABS,ioos:station:wmo:42045:1,2002-09-14T06:00:00Z,26.2168,-96.4998,2.0,153.9854063,49.795061,-99999.0,'11111222,11111222,99999999' 
TABS,ioos:station:wmo:42045:1,2002-09-14T06:30:00Z,26.2168,-96.4998,2.0,154.2211822,49.52909852,-99999.0,'11111222,11111222,99999999' 
TABS,ioos:station:wmo:42045:1,2002-09-14T07:00:00Z,26.2168,-96.4998,2.0,151.1162072,47.20178916,-99999.0,'11111222,11111222,99999999' 
TABS,ioos:station:wmo:42045:1,2002-09-14T07:30:00Z,26.2168,-96.4998,2.0,153.1752583,48.37559095,-99999.0,'11111222,11111222,99999999' 
TABS,ioos:station:wmo:42045:1,2002-09-14T08:00:00Z,26.2168,-96.4998,2.0,147.8719601,46.59549334,-99999.0,'11111222,11111222,99999999' 
TABS,ioos:station:wmo:42045:1,2002-09-14T08:30:00Z,26.2168,-96.4998,2.0,146.6796535,44.25490368,-99999.0,'11111222,11111222,99999999' 
TABS,ioos:station:wmo:42045:1,2002-09-14T09:00:00Z,26.2168,-96.4998,2.0,143.9250545,44.3922741,-99999.0,'11111222,11111222,99999999' 
TABS,ioos:station:wmo:42045:1,2002-09-14T09:30:00Z,26.2168,-96.4998,2.0,140.6946134,45.74932131,-99999.0,'11111222,11111222,99999999' 
TABS,ioos:station:wmo:42045:1,2002-09-14T10:00:00Z,26.2168,-96.4998,2.0,139.7136374,49.90669093,-99999.0,'11111222,11111222,99999999' 
TABS,ioos:station:wmo:42045:1,2002-09-14T10:30:00Z,26.2168,-96.4998,2.0,138.1434624,51.44872496,-99999.0,'11111222,11111222,99999999' 
TABS,ioos:station:wmo:42045:1,2002-09-14T11:00:00Z,26.2168,-96.4998,2.0,139.7135202,55.84525136,-99999.0,'11111222,11111222,99999999' 
TABS,ioos:station:wmo:42045:1,2002-09-14T11:30:00Z,26.2168,-96.4998,2.0,139.1313616,57.90696158,-99999.0,'11111222,11111222,99999999' 
TABS,ioos:station:wmo:42045:1,2002-09-14T12:00:00Z,26.2168,-96.4998,2.0,145.4034529,59.08851073,-99999.0,'11111222,11111222,99999999' 
TABS,ioos:station:wmo:42045:1,2002-09-14T12:30:00Z,26.2168,-96.4998,2.0,143.3013269,58.18226018,-99999.0,'11111222,11111222,99999999' 
TABS,ioos:station:wmo:42045:1,2002-09-14T13:00:00Z,26.2168,-96.4998,2.0,144.7455622,62.99304089,-99999.0,'11111222,11111222,99999999' 
TABS,ioos:station:wmo:42045:1,2002-09-14T13:30:00Z,26.2168,-96.4998,2.0,144.59173,61.70207938,-99999.0,'11111222,11111222,99999999' 
TABS,ioos:station:wmo:42045:1,2002-09-14T14:00:00Z,26.2168,-96.4998,2.0,148.035764,61.78835246,-99999.0,'11111222,11111222,99999999' 
TABS,ioos:station:wmo:42045:1,2002-09-14T14:30:00Z,26.2168,-96.4998,2.0,152.6266597,62.46406407,-99999.0,'11111222,11111222,99999999' 
TABS,ioos:station:wmo:42045:1,2002-09-14T15:00:00Z,26.2168,-96.4998,2.0,154.101274,64.97558695,-99999.0,'11111222,11111222,99999999' 
TABS,ioos:station:wmo:42045:1,2002-09-14T15:30:00Z,26.2168,-96.4998,2.0,154.4188907,67.44081331,-99999.0,'11111222,11111222,99999999' 
TABS,ioos:station:wmo:42045:1,2002-09-14T16:00:00Z,26.2168,-96.4998,2.0,153.7699061,63.46516682,-99999.0,'11111222,11111222,99999999' 
TABS,ioos:station:wmo:42045:1,2002-09-14T16:30:00Z,26.2168,-96.4998,2.0,157.8686175,63.22845325,-99999.0,'11111222,11111222,99999999' 
TABS,ioos:station:wmo:42045:1,2002-09-14T17:00:00Z,26.2168,-96.4998,2.0,158.1201234,66.57555482,-99999.0,'11111222,11111222,99999999' 
TABS,ioos:station:wmo:42045:1,2002-09-14T17:30:00Z,26.2168,-96.4998,2.0,159.6190718,67.33525748,-99999.0,'11111222,11111222,99999999' 
TABS,ioos:station:wmo:42045:1,2002-09-14T18:00:00Z,26.2168,-96.4998,2.0,158.2715737,68.36750836,-99999.0,'11111222,11111222,99999999' 
TABS,ioos:station:wmo:42045:1,2002-09-14T18:30:00Z,26.2168,-96.4998,2.0,158.0247992,69.85519308,-99999.0,'11111222,11111222,99999999' 
TABS,ioos:station:wmo:42045:1,2002-09-14T19:00:00Z,26.2168,-96.4998,2.0,161.4221317,69.80749602,-99999.0,'11111222,11111222,99999999' 
TABS,ioos:station:wmo:42045:1,2002-09-14T19:30:00Z,26.2168,-96.4998,2.0,161.3313605,70.60475975,-99999.0,'11111222,11111222,99999999' 
TABS,ioos:station:wmo:42045:1,2002-09-14T20:00:00Z,26.2168,-96.4998,2.0,162.3257131,69.30110028,-99999.0,'11111222,11111222,99999999' 
TABS,ioos:station:wmo:42045:1,2002-09-14T20:30:00Z,26.2168,-96.4998,2.0,163.1646314,66.6045539,-99999.0,'11111222,11111222,99999999' 
TABS,ioos:station:wmo:42045:1,2002-09-14T21:00:00Z,26.2168,-96.4998,2.0,164.0263643,67.29844278,-99999.0,'11111222,11111222,99999999' 
TABS,ioos:station:wmo:42045:1,2002-09-14T21:30:00Z,26.2168,-96.4998,2.0,165.6726556,66.39498324,-99999.0,'11111222,11111222,99999999' 
TABS,ioos:station:wmo:42045:1,2002-09-14T22:00:00Z,26.2168,-96.4998,2.0,165.1713892,66.660012,-99999.0,'11111222,11111222,99999999' 
TABS,ioos:station:wmo:42045:1,2002-09-14T22:30:00Z,26.2168,-96.4998,2.0,167.0654033,66.34333501,-99999.0,'11111222,11111222,99999999' 
TABS,ioos:station:wmo:42045:1,2002-09-14T23:00:00Z,26.2168,-96.4998,2.0,170.5065952,64.0268389,-99999.0,'11111222,11111222,99999999' 
TABS,ioos:station:wmo:42045:1,2002-09-14T23:30:00Z,26.2168,-96.4998,2.0,173.0121812,63.62255968,-99999.0,'11111222,11111222,99999999' 
TABS,ioos:station:wmo:42045:1,2002-09-15T00:00:00Z,26.2168,-96.4998,2.0,175.5391486,61.71694176,-99999.0,'11111222,11111222,99999999' 
TABS,ioos:station:wmo:42045:1,2002-09-15T00:30:00Z,26.2168,-96.4998,2.0,176.4379052,59.39473462,-99999.0,'11111222,11111222,99999999' 
TABS,ioos:station:wmo:42045:1,2002-09-15T01:00:00Z,26.2168,-96.4998,2.0,175.2345684,59.82679416,-99999.0,'11111222,11111222,99999999' 
TABS,ioos:station:wmo:42045:1,2002-09-15T01:30:00Z,26.2168,-96.4998,2.0,180.327587,57.68094399,-99999.0,'11111222,11111222,99999999' 
TABS,ioos:station:wmo:42045:1,2002-09-15T02:00:00Z,26.2168,-96.4998,2.0,182.416412,55.96977756,-99999.0,'11111222,11111222,99999999' 
TABS,ioos:station:wmo:42045:1,2002-09-15T02:30:00Z,26.2168,-96.4998,2.0,181.6844699,55.78411243,-99999.0,'11111222,11111222,99999999' 
TABS,ioos:station:wmo:42045:1,2002-09-15T03:00:00Z,26.2168,-96.4998,2.0,183.4067631,50.64951826,-99999.0,'11111222,11111222,99999999' 
TABS,ioos:station:wmo:42045:1,2002-09-15T03:30:00Z,26.2168,-96.4998,2.0,181.6035529,47.87875521,-99999.0,'11111222,11111222,99999999' 
TABS,ioos:station:wmo:42045:1,2002-09-15T04:00:00Z,26.2168,-96.4998,2.0,179.3248554,44.9931217,-99999.0,'11111222,11111222,99999999' 
TABS,ioos:station:wmo:42045:1,2002-09-15T04:30:00Z,26.2168,-96.4998,2.0,180.4537431,41.6513073,-99999.0,'11111222,11111222,99999999' 
TABS,ioos:station:wmo:42045:1,2002-09-15T05:00:00Z,26.2168,-96.4998,2.0,174.8203038,38.21604506,-99999.0,'11111222,11111222,99999999' 
TABS,ioos:station:wmo:42045:1,2002-09-15T05:30:00Z,26.2168,-96.4998,2.0,169.4966336,35.65744803,-99999.0,'11111222,11111222,99999999' 
TABS,ioos:station:wmo:42045:1,2002-09-15T06:00:00Z,26.2168,-96.4998,2.0,165.9554037,33.99621891,-99999.0,'11111222,11111222,99999999' 
TABS,ioos:station:wmo:42045:1,2002-09-15T06:30:00Z,26.2168,-96.4998,2.0,166.7828374,32.05921084,-99999.0,'11111222,11111222,99999999' 
TABS,ioos:station:wmo:42045:1,2002-09-15T07:00:00Z,26.2168,-96.4998,2.0,156.7307582,26.68017429,-99999.0,'11111222,11111222,99999999' 
TABS,ioos:station:wmo:42045:1,2002-09-15T07:30:00Z,26.2168,-96.4998,2.0,153.7669122,22.37447206,-99999.0,'11111222,11111222,99999999' 
TABS,ioos:station:wmo:42045:1,2002-09-15T08:00:00Z,26.2168,-96.4998,2.0,141.830799,24.43428125,-99999.0,'11111222,11111222,99999999' 
TABS,ioos:station:wmo:42045:1,2002-09-15T08:30:00Z,26.2168,-96.4998,2.0,133.9003998,24.68964358,-99999.0,'11111222,11111222,99999999' 
TABS,ioos:station:wmo:42045:1,2002-09-15T09:00:00Z,26.2168,-96.4998,2.0,131.4382482,27.54551506,-99999.0,'11111222,11111222,99999999' 
TABS,ioos:station:wmo:42045:1,2002-09-15T09:30:00Z,26.2168,-96.4998,2.0,134.1691661,28.28724448,-99999.0,'11111222,11111222,99999999' 
TABS,ioos:station:wmo:42045:1,2002-09-15T10:00:00Z,26.2168,-96.4998,2.0,136.6071246,30.75710324,-99999.0,'11111222,11111222,99999999' 
TABS,ioos:station:wmo:42045:1,2002-09-15T10:30:00Z,26.2168,-96.4998,2.0,136.5689154,33.57187513,-99999.0,'11111222,11111222,99999999' 
TABS,ioos:station:wmo:42045:1,2002-09-15T11:00:00Z,26.2168,-96.4998,2.0,136.2117599,34.43673184,-99999.0,'11111222,11111222,99999999' 
TABS,ioos:station:wmo:42045:1,2002-09-15T11:30:00Z,26.2168,-96.4998,2.0,141.0165537,38.72233981,-99999.0,'11111222,11111222,99999999' 
TABS,ioos:station:wmo:42045:1,2002-09-15T12:00:00Z,26.2168,-96.4998,2.0,147.4755048,39.67204809,-99999.0,'11111222,11111222,99999999' 
TABS,ioos:station:wmo:42045:1,2002-09-15T12:30:00Z,26.2168,-96.4998,2.0,147.7995567,39.25830867,-99999.0,'11111222,11111222,99999999' 
TABS,ioos:station:wmo:42045:1,2002-09-15T13:00:00Z,26.2168,-96.4998,2.0,152.9137762,41.31082788,-99999.0,'11111222,11111222,99999999' 
TABS,ioos:station:wmo:42045:1,2002-09-15T13:30:00Z,26.2168,-96.4998,2.0,152.8509836,48.27921395,-99999.0,'11111222,11111222,99999999' 
TABS,ioos:station:wmo:42045:1,2002-09-15T14:00:00Z,26.2168,-96.4998,2.0,154.7212119,47.21082185,-99999.0,'11111222,11111222,99999999' 
TABS,ioos:station:wmo:42045:1,2002-09-15T14:30:00Z,26.2168,-96.4998,2.0,155.2450233,45.30298555,-99999.0,'11111222,11111222,99999999' 
TABS,ioos:station:wmo:42045:1,2002-09-15T15:00:00Z,26.2168,-96.4998,2.0,156.9929557,51.01808699,-99999.0,'11111222,11111222,99999999' 
TABS,ioos:station:wmo:42045:1,2002-09-15T15:30:00Z,26.2168,-96.4998,2.0,154.3857622,50.65838924,-99999.0,'11111222,11111222,99999999' 
TABS,ioos:station:wmo:42045:1,2002-09-15T16:00:00Z,26.2168,-96.4998,2.0,156.9849992,51.99892787,-99999.0,'11111222,11111222,99999999' 
TABS,ioos:station:wmo:42045:1,2002-09-15T16:30:00Z,26.2168,-96.4998,2.0,155.5522306,51.80481831,-99999.0,'11111222,11111222,99999999' 
TABS,ioos:station:wmo:42045:1,2002-09-15T17:00:00Z,26.2168,-96.4998,2.0,158.2980076,54.49237928,-99999.0,'11111222,11111222,99999999' 
TABS,ioos:station:wmo:42045:1,2002-09-15T17:30:00Z,26.2168,-96.4998,2.0,159.0347133,51.14594412,-99999.0,'11111222,11111222,99999999' 
TABS,ioos:station:wmo:42045:1,2002-09-15T18:00:00Z,26.2168,-96.4998,2.0,157.2102575,52.97561703,-99999.0,'11111222,11111222,99999999' 
TABS,ioos:station:wmo:42045:1,2002-09-15T18:30:00Z,26.2168,-96.4998,2.0,161.3718579,54.44208115,-99999.0,'11111222,11111222,99999999' 
TABS,ioos:station:wmo:42045:1,2002-09-15T19:00:00Z,26.2168,-96.4998,2.0,163.4458215,53.27830046,-99999.0,'11111222,11111222,99999999' 
TABS,ioos:station:wmo:42045:1,2002-09-15T19:30:00Z,26.2168,-96.4998,2.0,167.9065407,54.08015625,-99999.0,'11111222,11111222,99999999' 
TABS,ioos:station:wmo:42045:1,2002-09-15T20:00:00Z,26.2168,-96.4998,2.0,170.5308101,56.40858091,-99999.0,'11111222,11111222,99999999' 
TABS,ioos:station:wmo:42045:1,2002-09-15T20:30:00Z,26.2168,-96.4998,2.0,173.6649747,59.00025169,-99999.0,'11111222,11111222,99999999' 
TABS,ioos:station:wmo:42045:1,2002-09-15T21:00:00Z,26.2168,-96.4998,2.0,173.4642,57.63454867,-99999.0,'11111222,11111222,99999999' 
TABS,ioos:station:wmo:42045:1,2002-09-15T21:30:00Z,26.2168,-96.4998,2.0,176.6287224,58.33093347,-99999.0,'11111222,11111222,99999999' 
TABS,ioos:station:wmo:42045:1,2002-09-15T22:00:00Z,26.2168,-96.4998,2.0,183.0409948,61.44653937,-99999.0,'11111222,11111222,99999999' 
TABS,ioos:station:wmo:42045:1,2002-09-15T22:30:00Z,26.2168,-96.4998,2.0,187.6985878,61.06040042,-99999.0,'11111222,11111222,99999999' 
TABS,ioos:station:wmo:42045:1,2002-09-15T23:00:00Z,26.2168,-96.4998,2.0,189.4794069,65.27133291,-99999.0,'11111222,11111222,99999999' 
TABS,ioos:station:wmo:42045:1,2002-09-15T23:30:00Z,26.2168,-96.4998,2.0,193.9518688,66.06920084,-99999.0,'11111222,11111222,99999999' 
TABS,ioos:station:wmo:42045:1,2002-09-16T00:00:00Z,26.2168,-96.4998,2.0,195.1983094,70.18484808,-99999.0,'11111222,11111222,99999999' 
TABS,ioos:station:wmo:42045:1,2002-09-16T00:30:00Z,26.2168,-96.4998,2.0,200.4877167,79.79754006,-99999.0,'11111222,11111222,99999999' 
TABS,ioos:station:wmo:42045:1,2002-09-16T01:00:00Z,26.2168,-96.4998,2.0,202.1012883,84.01343762,-99999.0,'11111222,11111222,99999999' 
TABS,ioos:station:wmo:42045:1,2002-09-16T01:30:00Z,26.2168,-96.4998,2.0,204.4088437,91.17984043,-99999.0,'11111222,11111222,99999999' 
TABS,ioos:station:wmo:42045:1,2002-09-16T02:00:00Z,26.2168,-96.4998,2.0,207.432266,89.79736577,-99999.0,'11111222,11111222,99999999' 
TABS,ioos:station:wmo:42045:1,2002-09-16T02:30:00Z,26.2168,-96.4998,2.0,209.4029435,96.09885951,-99999.0,'11111222,11111222,99999999' 
TABS,ioos:station:wmo:42045:1,2002-09-16T03:00:00Z,26.2168,-96.4998,2.0,215.9581643,97.19029684,-99999.0,'11111222,11111222,99999999' 
TABS,ioos:station:wmo:42045:1,2002-09-16T03:30:00Z,26.2168,-96.4998,2.0,223.6514972,94.36831036,-99999.0,'11111222,11111222,99999999' 
TABS,ioos:station:wmo:42045:1,2002-09-16T04:00:00Z,26.2168,-96.4998,2.0,230.9710354,83.9435745,-99999.0,'11111222,11111222,99999999' 
TABS,ioos:station:wmo:42045:1,2002-09-16T04:30:00Z,26.2168,-96.4998,2.0,237.5991466,69.62973646,-99999.0,'11111222,11111222,99999999' 
TABS,ioos:station:wmo:42045:1,2002-09-16T05:00:00Z,26.2168,-96.4998,2.0,245.6678944,54.51202161,-99999.0,'11111222,11111222,99999999' 
TABS,ioos:station:wmo:42045:1,2002-09-16T05:30:00Z,26.2168,-96.4998,2.0,254.3524499,44.86256792,-99999.0,'11111222,11111222,99999999' 
TABS,ioos:station:wmo:42045:1,2002-09-16T06:00:00Z,26.2168,-96.4998,2.0,264.1651652,34.52886618,-99999.0,'11111222,11111222,99999999' 
TABS,ioos:station:wmo:42045:1,2002-09-16T06:30:00Z,26.2168,-96.4998,2.0,273.1054467,26.76929958,-99999.0,'11111222,11111222,99999999' 
TABS,ioos:station:wmo:42045:1,2002-09-16T07:00:00Z,26.2168,-96.4998,2.0,303.1859756,23.31217922,-99999.0,'11111222,11111222,99999999' 
TABS,ioos:station:wmo:42045:1,2002-09-16T07:30:00Z,26.2168,-96.4998,2.0,317.5451141,22.93287596,-99999.0,'11111222,11111222,99999999' 
TABS,ioos:station:wmo:42045:1,2002-09-16T08:00:00Z,26.2168,-96.4998,2.0,338.068799,22.08851738,-99999.0,'11111222,11111222,99999999' 
TABS,ioos:station:wmo:42045:1,2002-09-16T08:30:00Z,26.2168,-96.4998,2.0,0.073509752,23.45001919,-99999.0,'11111222,11111222,99999999' 
TABS,ioos:station:wmo:42045:1,2002-09-16T09:00:00Z,26.2168,-96.4998,2.0,30.11861033,25.11012545,-99999.0,'11111222,11111222,99999999' 
TABS,ioos:station:wmo:42045:1,2002-09-16T09:30:00Z,26.2168,-96.4998,2.0,49.72231582,28.43027436,-99999.0,'11111222,11111222,99999999' 
TABS,ioos:station:wmo:42045:1,2002-09-16T10:00:00Z,26.2168,-96.4998,2.0,61.63751135,29.51273115,-99999.0,'11111222,11111222,99999999' 
TABS,ioos:station:wmo:42045:1,2002-09-16T10:30:00Z,26.2168,-96.4998,2.0,71.78429897,30.58261107,-99999.0,'11111222,11111222,99999999' 
TABS,ioos:station:wmo:42045:1,2002-09-16T11:00:00Z,26.2168,-96.4998,2.0,79.22817855,27.98308418,-99999.0,'11111222,11111222,99999999' 
TABS,ioos:station:wmo:42045:1,2002-09-16T11:30:00Z,26.2168,-96.4998,2.0,99.99239116,25.58815351,-99999.0,'11111222,11111222,99999999' 